VLG2CM GCLP-LEST

Flight info

Callsign VLG2CM
Flight time N/A
Altitude 38000
Route VASTO DCT NIDEB DCT TIGGI DCT ORSOS DCT TERVA DCT ASMOV DCT AGADO
Aircraft A21N/M-SDE2E3FGHIRWXY/LB1

Departure

Time 2026-04-30 20:55
Airport Gran Canaria Airport (GCLP)

Arrival

Time N/A
Airport Santiago-Rosalía de Castro Airport (LEST)
Time Latitude Longitude Altitude Speed Heading
2026-04-30 20:30 27.93898 -15.38803 91 ft 0 kts 291°
2026-04-30 20:44 27.93895 -15.38794 92 ft 3 kts 289°
2026-04-30 20:45 27.93886 -15.38750 91 ft 3 kts 274°
2026-04-30 20:45 27.93886 -15.38728 90 ft 3 kts 257°
2026-04-30 20:45 27.93893 -15.38708 87 ft 3 kts 220°
2026-04-30 20:46 27.93899 -15.38702 91 ft 0 kts 201°
2026-04-30 20:48 27.93875 -15.38713 89 ft 8 kts 201°
2026-04-30 20:48 27.93807 -15.38743 87 ft 11 kts 201°
2026-04-30 20:49 27.93727 -15.38778 90 ft 14 kts 201°
2026-04-30 20:49 27.93632 -15.38819 90 ft 15 kts 201°
2026-04-30 20:49 27.93526 -15.38864 87 ft 16 kts 195°
2026-04-30 20:50 27.93368 -15.38766 69 ft 10 kts 184°
2026-04-30 20:50 27.93306 -15.38796 71 ft 11 kts 204°
2026-04-30 20:50 27.93233 -15.38832 69 ft 14 kts 202°
2026-04-30 20:50 27.93128 -15.38881 72 ft 18 kts 202°
2026-04-30 20:51 27.93047 -15.38919 83 ft 20 kts 202°
2026-04-30 20:51 27.92778 -15.39036 90 ft 21 kts 200°
2026-04-30 20:51 27.92645 -15.39089 93 ft 20 kts 199°
2026-04-30 20:52 27.92512 -15.39141 96 ft 20 kts 199°
2026-04-30 20:52 27.92380 -15.39192 98 ft 20 kts 198°
2026-04-30 20:52 27.92184 -15.39297 103 ft 16 kts 190°
2026-04-30 20:53 27.92068 -15.39302 96 ft 18 kts 177°
2026-04-30 20:53 27.91943 -15.39276 93 ft 15 kts 139°
2026-04-30 20:53 27.91935 -15.39221 91 ft 4 kts 42°
2026-04-30 20:54 27.92166 -15.39111 87 ft 63 kts 20°
2026-04-30 20:54 27.92831 -15.38817 67 ft 144 kts 21°
2026-04-30 20:54 27.93908 -15.38345 459 ft 174 kts 22°
2026-04-30 20:55 27.96196 -15.37326 2124 ft 179 kts 21°
2026-04-30 20:55 27.97464 -15.36776 2672 ft 210 kts 20°
2026-04-30 20:55 27.98914 -15.36153 3319 ft 234 kts 20°
2026-04-30 20:56 28.02180 -15.34754 3960 ft 261 kts 20°
2026-04-30 20:56 28.03881 -15.34023 3995 ft 262 kts 20°
2026-04-30 20:56 28.07290 -15.32547 3994 ft 262 kts 20°
2026-04-30 20:57 28.08999 -15.31806 3991 ft 262 kts 20°
2026-04-30 20:57 28.10707 -15.31065 3993 ft 263 kts 20°
2026-04-30 20:57 28.12424 -15.30321 4147 ft 267 kts 20°
2026-04-30 20:58 28.16187 -15.28946 5332 ft 310 kts 14°
2026-04-30 20:58 28.18304 -15.28333 6348 ft 314 kts 15°
2026-04-30 20:58 28.20311 -15.27437 7680 ft 307 kts 25°
2026-04-30 20:58 28.22194 -15.26335 9067 ft 302 kts 27°
2026-04-30 20:59 28.25936 -15.23960 10923 ft 326 kts 28°
2026-04-30 20:59 28.27969 -15.22639 11511 ft 344 kts 28°
2026-04-30 21:00 28.32212 -15.19854 13291 ft 359 kts 27°
2026-04-30 21:00 28.36577 -15.16980 15018 ft 370 kts 27°
2026-04-30 21:01 28.41075 -15.14014 16785 ft 378 kts 26°
2026-04-30 21:01 28.43366 -15.12502 17656 ft 382 kts 26°
2026-04-30 21:01 28.48018 -15.09432 19231 ft 392 kts 26°
2026-04-30 21:02 28.50392 -15.07863 19944 ft 397 kts 26°
2026-04-30 21:02 28.52789 -15.06279 20671 ft 402 kts 26°
2026-04-30 21:02 28.55218 -15.04672 21379 ft 406 kts 26°
2026-04-30 21:02 28.57680 -15.03042 22073 ft 411 kts 26°
2026-04-30 21:03 28.60163 -15.01398 22750 ft 416 kts 26°
2026-04-30 21:03 28.62678 -14.99731 23405 ft 420 kts 26°
2026-04-30 21:03 28.65224 -14.98043 24000 ft 425 kts 26°
2026-04-30 21:03 28.67795 -14.96338 24530 ft 430 kts 26°
2026-04-30 21:04 28.70390 -14.94614 25071 ft 435 kts 25°
2026-04-30 21:04 28.73012 -14.92873 25591 ft 439 kts 25°
2026-04-30 21:04 28.78345 -14.89328 26600 ft 448 kts 25°
2026-04-30 21:05 28.81048 -14.87529 27081 ft 451 kts 25°
2026-04-30 21:05 28.83769 -14.85717 27534 ft 455 kts 25°
2026-04-30 21:05 28.86515 -14.83884 27969 ft 459 kts 26°
2026-04-30 21:05 28.89236 -14.81921 28407 ft 464 kts 28°
2026-04-30 21:06 28.91944 -14.79878 28810 ft 468 kts 29°
2026-04-30 21:06 28.94662 -14.77811 29227 ft 472 kts 29°
2026-04-30 21:06 28.97403 -14.75728 29632 ft 475 kts 29°
2026-04-30 21:06 29.00170 -14.73627 30037 ft 479 kts 29°
2026-04-30 21:07 29.02954 -14.71514 30451 ft 481 kts 28°
2026-04-30 21:07 29.05749 -14.69393 30860 ft 483 kts 28°
2026-04-30 21:07 29.08554 -14.67263 31267 ft 484 kts 28°
2026-04-30 21:07 29.11348 -14.65140 31757 ft 483 kts 28°
2026-04-30 21:08 29.14148 -14.63010 32344 ft 479 kts 28°
2026-04-30 21:08 29.16874 -14.60935 32880 ft 476 kts 28°
2026-04-30 21:08 29.19626 -14.58841 33417 ft 473 kts 28°
2026-04-30 21:08 29.22362 -14.56757 33918 ft 471 kts 28°
2026-04-30 21:09 29.25083 -14.54684 34353 ft 469 kts 28°
2026-04-30 21:09 29.27793 -14.52619 34740 ft 468 kts 28°
2026-04-30 21:09 29.30510 -14.50547 35093 ft 467 kts 28°
2026-04-30 21:09 29.33214 -14.48484 35479 ft 466 kts 28°
2026-04-30 21:10 29.35909 -14.46425 35852 ft 465 kts 28°
2026-04-30 21:10 29.38595 -14.44373 36198 ft 464 kts 28°
2026-04-30 21:10 29.41286 -14.42315 36517 ft 464 kts 28°
2026-04-30 21:10 29.43966 -14.40264 36830 ft 464 kts 28°
2026-04-30 21:11 29.46650 -14.38210 37146 ft 463 kts 28°
2026-04-30 21:11 29.49332 -14.36155 37456 ft 463 kts 28°
2026-04-30 21:11 29.52005 -14.34105 37764 ft 462 kts 28°
2026-04-30 21:11 29.54673 -14.32058 38061 ft 462 kts 28°
2026-04-30 21:12 29.57347 -14.30005 38172 ft 462 kts 28°
2026-04-30 21:12 29.60021 -14.27951 38174 ft 461 kts 28°
2026-04-30 21:12 29.65349 -14.23854 38174 ft 461 kts 28°
2026-04-30 21:13 29.70673 -14.19755 38173 ft 461 kts 28°
2026-04-30 21:13 29.75997 -14.15650 38173 ft 460 kts 28°
2026-04-30 21:14 29.81313 -14.11547 38176 ft 460 kts 28°
2026-04-30 21:14 29.86636 -14.07432 38176 ft 460 kts 28°
2026-04-30 21:15 29.91947 -14.03321 38179 ft 460 kts 28°
2026-04-30 21:15 29.97228 -13.99228 38179 ft 460 kts 28°
2026-04-30 21:16 30.02544 -13.95103 38176 ft 460 kts 28°
2026-04-30 21:16 30.07847 -13.90981 38182 ft 460 kts 28°
2026-04-30 21:17 30.13159 -13.86848 38182 ft 460 kts 28°
2026-04-30 21:17 30.18466 -13.82713 38183 ft 459 kts 28°
2026-04-30 21:18 30.23758 -13.78584 38194 ft 459 kts 28°
2026-04-30 21:18 30.29065 -13.74439 38184 ft 460 kts 28°
2026-04-30 21:19 30.34361 -13.70296 38181 ft 460 kts 28°
2026-04-30 21:19 30.39665 -13.66142 38181 ft 460 kts 28°
2026-04-30 21:20 30.44957 -13.61992 38184 ft 460 kts 28°
2026-04-30 21:20 30.50261 -13.57851 38187 ft 458 kts 25°
2026-04-30 21:21 30.55758 -13.54185 38192 ft 455 kts 22°
2026-04-30 21:22 30.64139 -13.48988 38179 ft 455 kts 21°
2026-04-30 21:23 30.75282 -13.42036 38178 ft 454 kts 21°
2026-04-30 21:23 30.83622 -13.36786 38198 ft 454 kts 21°
2026-04-30 21:24 30.89164 -13.33292 38186 ft 454 kts 21°
2026-04-30 21:24 30.94687 -13.29806 38186 ft 454 kts 21°
2026-04-30 21:25 31.03056 -13.24515 38186 ft 454 kts 21°
2026-04-30 21:26 31.11393 -13.19235 38189 ft 454 kts 21°
2026-04-30 21:27 31.19735 -13.13940 38185 ft 455 kts 21°
2026-04-30 21:27 31.25299 -13.10402 38186 ft 455 kts 21°
2026-04-30 21:28 31.33640 -13.05089 38185 ft 455 kts 21°
2026-04-30 21:29 31.41946 -12.99789 38211 ft 455 kts 21°
2026-04-30 21:30 31.55846 -12.90895 38189 ft 455 kts 21°
2026-04-30 21:31 31.68804 -12.82575 38192 ft 455 kts 21°
2026-04-30 21:32 31.77144 -12.77207 38189 ft 456 kts 21°
2026-04-30 21:32 31.82693 -12.73627 38203 ft 454 kts 21°
2026-04-30 21:33 31.90986 -12.68270 38184 ft 453 kts 21°
2026-04-30 21:34 31.96510 -12.64697 38189 ft 453 kts 21°
2026-04-30 21:34 32.04793 -12.59328 38189 ft 454 kts 21°
2026-04-30 21:35 32.10326 -12.55736 38189 ft 454 kts 21°
2026-04-30 21:35 32.15854 -12.52142 38189 ft 454 kts 21°
2026-04-30 21:36 32.21380 -12.48543 38192 ft 454 kts 21°
2026-04-30 21:37 32.32437 -12.41329 38188 ft 454 kts 21°
2026-04-30 21:37 32.37967 -12.37713 38191 ft 454 kts 21°
2026-04-30 21:38 32.43449 -12.34122 38192 ft 453 kts 21°
2026-04-30 21:38 32.48974 -12.30500 38192 ft 453 kts 21°
2026-04-30 21:39 32.54493 -12.26876 38188 ft 453 kts 21°
2026-04-30 21:39 32.60007 -12.23251 38192 ft 454 kts 21°
2026-04-30 21:40 32.65475 -12.19650 38192 ft 454 kts 21°
2026-04-30 21:40 32.71004 -12.16004 38192 ft 454 kts 21°
2026-04-30 21:41 32.76534 -12.12352 38192 ft 454 kts 21°
2026-04-30 21:41 32.82013 -12.08729 38189 ft 454 kts 21°
2026-04-30 21:42 32.87550 -12.05061 38189 ft 454 kts 21°
2026-04-30 21:42 32.93065 -12.01403 38192 ft 453 kts 21°
2026-04-30 21:43 32.98758 -11.98486 38193 ft 440 kts
2026-04-30 21:43 33.04596 -11.96362 38192 ft 438 kts
2026-04-30 21:44 33.10457 -11.94387 38200 ft 437 kts
2026-04-30 21:44 33.16317 -11.92424 38193 ft 438 kts
2026-04-30 21:45 33.22145 -11.90452 38192 ft 438 kts
2026-04-30 21:45 33.28009 -11.88451 38193 ft 438 kts
2026-04-30 21:46 33.33865 -11.86448 38192 ft 438 kts
2026-04-30 21:46 33.39719 -11.84443 38212 ft 438 kts
2026-04-30 21:47 33.45593 -11.82430 38192 ft 439 kts
2026-04-30 21:47 33.51443 -11.80422 38192 ft 439 kts
2026-04-30 21:48 33.57308 -11.78406 38193 ft 439 kts
2026-04-30 21:48 33.63174 -11.76386 38192 ft 439 kts
2026-04-30 21:49 33.69045 -11.74362 38189 ft 439 kts
2026-04-30 21:49 33.74914 -11.72336 38189 ft 439 kts
2026-04-30 21:50 33.80796 -11.70303 38190 ft 439 kts
2026-04-30 21:50 33.86669 -11.68269 38190 ft 439 kts
2026-04-30 21:51 33.92545 -11.66231 38211 ft 439 kts
2026-04-30 21:51 33.98424 -11.64191 38191 ft 440 kts
2026-04-30 21:52 34.04311 -11.62144 38192 ft 440 kts
2026-04-30 21:52 34.10197 -11.60094 38192 ft 440 kts
2026-04-30 21:53 34.16088 -11.58040 38192 ft 440 kts
2026-04-30 21:53 34.21978 -11.55983 38198 ft 441 kts
2026-04-30 21:54 34.27886 -11.53918 38192 ft 442 kts
2026-04-30 21:54 34.33792 -11.51849 38192 ft 442 kts
2026-04-30 21:55 34.39706 -11.49774 38193 ft 442 kts
2026-04-30 21:55 34.45612 -11.47699 38215 ft 442 kts
2026-04-30 21:56 34.51535 -11.45616 38188 ft 443 kts
2026-04-30 21:56 34.57461 -11.43528 38193 ft 443 kts
2026-04-30 21:57 34.63381 -11.41439 38183 ft 443 kts
2026-04-30 21:57 34.69307 -11.39344 38191 ft 443 kts
2026-04-30 21:58 34.75230 -11.37248 38184 ft 444 kts
2026-04-30 21:58 34.81136 -11.35156 38183 ft 445 kts
2026-04-30 21:59 34.87079 -11.33046 38181 ft 445 kts
2026-04-30 22:00 34.95989 -11.29875 38187 ft 444 kts
2026-04-30 22:00 35.04901 -11.26699 38185 ft 445 kts
2026-04-30 22:01 35.10840 -11.24580 38178 ft 445 kts
2026-04-30 22:01 35.16785 -11.22454 38179 ft 445 kts
2026-04-30 22:02 35.22724 -11.20326 38185 ft 445 kts
2026-04-30 22:02 35.28675 -11.18191 38184 ft 446 kts
2026-04-30 22:03 35.34627 -11.16053 38184 ft 446 kts
2026-04-30 22:03 35.40577 -11.13911 38184 ft 446 kts
2026-04-30 22:04 35.46495 -11.11778 38184 ft 446 kts
2026-04-30 22:05 35.55425 -11.08553 38184 ft 446 kts
2026-04-30 22:05 35.61383 -11.06398 38184 ft 446 kts
2026-04-30 22:06 35.67335 -11.04241 38184 ft 446 kts
2026-04-30 22:06 35.76279 -11.00994 38194 ft 446 kts
2026-04-30 22:07 35.82234 -10.98829 38183 ft 447 kts
2026-04-30 22:07 35.88197 -10.96656 38183 ft 447 kts
2026-04-30 22:08 35.94159 -10.94480 38183 ft 447 kts
2026-04-30 22:08 36.00107 -10.92779 38184 ft 437 kts
2026-04-30 22:09 36.06076 -10.91361 38184 ft 436 kts
2026-04-30 22:09 36.12035 -10.90000 38184 ft 436 kts
2026-04-30 22:10 36.17995 -10.88638 38181 ft 436 kts
2026-04-30 22:10 36.23960 -10.87263 38181 ft 436 kts
2026-04-30 22:11 36.32919 -10.85188 38181 ft 438 kts
2026-04-30 22:12 36.38918 -10.83793 38180 ft 438 kts
2026-04-30 22:12 36.43899 -10.82633 38180 ft 438 kts
2026-04-30 22:13 36.49893 -10.81236 38181 ft 438 kts
2026-04-30 22:13 36.55904 -10.79835 38180 ft 440 kts
2026-04-30 22:14 36.61925 -10.78428 38171 ft 440 kts
2026-04-30 22:14 36.67946 -10.77017 38184 ft 440 kts
2026-04-30 22:15 36.73968 -10.75604 38187 ft 440 kts
2026-04-30 22:15 36.79957 -10.74199 38182 ft 441 kts
2026-04-30 22:16 36.86001 -10.72778 38169 ft 442 kts
2026-04-30 22:17 36.98094 -10.69924 38180 ft 442 kts
2026-04-30 22:17 37.07176 -10.67778 38174 ft 443 kts
2026-04-30 22:18 37.16283 -10.65619 38172 ft 443 kts
2026-04-30 22:19 37.25379 -10.63457 38179 ft 443 kts
2026-04-30 22:20 37.34436 -10.61300 38169 ft 444 kts
2026-04-30 22:20 37.43545 -10.59124 38173 ft 444 kts
2026-04-30 22:21 37.49608 -10.57674 38180 ft 443 kts
2026-04-30 22:21 37.55669 -10.56220 38173 ft 442 kts
2026-04-30 22:22 37.61718 -10.54768 38170 ft 442 kts
2026-04-30 22:22 37.67724 -10.53323 38171 ft 442 kts
2026-04-30 22:23 37.73772 -10.51867 38171 ft 442 kts
2026-04-30 22:23 37.79809 -10.50410 38163 ft 442 kts
2026-04-30 22:24 37.85847 -10.48951 38171 ft 442 kts
2026-04-30 22:24 37.91896 -10.47487 38168 ft 442 kts
2026-04-30 22:25 37.97934 -10.46023 38166 ft 442 kts
2026-04-30 22:25 38.03977 -10.44555 38167 ft 442 kts
2026-04-30 22:26 38.12995 -10.42360 38161 ft 442 kts
2026-04-30 22:27 38.19036 -10.40886 38180 ft 442 kts
2026-04-30 22:27 38.28076 -10.38676 38167 ft 440 kts
2026-04-30 22:28 38.37116 -10.36461 38165 ft 440 kts
2026-04-30 22:29 38.49145 -10.33505 38166 ft 440 kts
2026-04-30 22:31 38.70186 -10.28309 38162 ft 439 kts
2026-04-30 22:32 38.85151 -10.24595 38159 ft 439 kts
2026-04-30 22:33 39.00111 -10.20715 38161 ft 441 kts 12°
2026-04-30 22:35 39.14703 -10.14632 38164 ft 441 kts 14°
2026-04-30 22:36 39.29250 -10.08357 38156 ft 441 kts 14°
2026-04-30 22:37 39.40841 -10.03359 38160 ft 441 kts 14°
2026-04-30 22:38 39.52475 -9.98325 38154 ft 441 kts 14°
2026-04-30 22:39 39.61207 -9.94534 38165 ft 441 kts 14°
2026-04-30 22:40 39.78658 -9.86927 38157 ft 442 kts 14°
2026-04-30 22:41 39.93247 -9.80537 38153 ft 443 kts 14°
2026-04-30 22:43 40.10766 -9.72825 38157 ft 443 kts 14°
2026-04-30 22:44 40.22368 -9.67694 38157 ft 443 kts 14°
2026-04-30 22:45 40.39891 -9.59910 38152 ft 443 kts 14°
2026-04-30 22:47 40.57405 -9.52210 38155 ft 442 kts 14°
2026-04-30 22:48 40.69062 -9.47075 38154 ft 441 kts 14°
2026-04-30 22:49 40.86562 -9.39327 38152 ft 442 kts 14°
2026-04-30 22:51 41.04006 -9.31486 38158 ft 443 kts 15°
2026-04-30 22:52 41.12738 -9.27453 37906 ft 443 kts 15°
2026-04-30 22:52 41.18571 -9.24759 37361 ft 444 kts 15°
2026-04-30 22:53 41.24405 -9.22063 36850 ft 445 kts 15°
2026-04-30 22:53 41.30262 -9.19352 36331 ft 445 kts 15°
2026-04-30 22:53 41.33189 -9.17995 36074 ft 445 kts 15°
2026-04-30 22:54 41.38054 -9.15736 35664 ft 445 kts 14°
2026-04-30 22:55 41.46736 -9.11697 34949 ft 447 kts 14°
2026-04-30 22:55 41.52611 -9.08958 34451 ft 447 kts 14°
2026-04-30 22:56 41.58466 -9.06219 33953 ft 444 kts 14°
2026-04-30 22:56 41.67249 -9.02114 33170 ft 450 kts 15°
2026-04-30 22:57 41.73132 -8.99354 32221 ft 445 kts 16°
2026-04-30 22:57 41.78937 -8.96622 31172 ft 441 kts 18°
2026-04-30 22:58 41.84734 -8.93892 30323 ft 441 kts 19°
2026-04-30 22:59 41.93571 -8.90377 27853 ft 438 kts 14°
2026-04-30 22:59 42.02240 -8.87269 26094 ft 422 kts 14°